Regional Weather Roundup
Issued by NWS

Home | Current Version | Previous Version | Graphics & Text | Print | Product List | Glossary On
Versions: 1 2 3 4 5 6 7 8 9 10 11 12 13 14 15 16 17 18 19 20 21 22 23 24 25 26 27 28 29 30 31 32 33 34 35 36 37 38 39 40 41 42 43 44 45 46 47 48 49 50
000
ASUS43 KDTX 050210
RWRMI
MICHIGAN HOURLY REGIONAL WEATHER ROUNDUP
NATIONAL WEATHER SERVICE DETROIT/PONTIAC MI
1000 PM EDT TUE AUG 04 2015

NOTE: "FAIR" INDICATES FEW OR NO CLOUDS BELOW 12,000 FEET WITH NO
SIGNIFICANT WEATHER AND/OR OBSTRUCTION TO VISIBILITY.

MIZ047>049-052>055-059>063-066>070-074>076-081>083-050300-
SOUTHEAST LOWER MICHIGAN

CITY           SKY/WX    TMP DP  RH WIND       PRES   REMARKS
ADRIAN         PTCLDY    68  55  63 NW5       29.99R
ALMA           CLEAR     60  56  87 CALM      29.98R
ANN ARBOR      CLEAR     65  56  72 W6        29.97R
BAD AXE        PTCLDY    60  57  91 CALM      29.96R
DETROIT CITY   CLEAR     73  52  47 W5        29.96R
DETROIT        MOCLDY    71  54  54 W7        29.96R
FLINT          CLEAR     68  54  60 SW6       29.96R
GROSSE ILE     CLEAR     72  55  56 W3        29.95R
HILLSDALE      PTCLDY    65  58  78 W3        30.01R
HOWELL         CLEAR     65  53  65 W3        29.98R

CITY           SKY/WX    TMP DP  RH WIND       PRES   REMARKS
JACKSON        PTCLDY    65  56  72 W5        29.99R
LAMBERTVILLE   PTCLDY    68  58  71 CALM      29.98R
LANSING        CLEAR     66  54  65 W5        29.99R
LAPEER         NOT AVBL
MASON          CLEAR     65  55  69 CALM      29.98R
MONROE         CLEAR     66  59  77 CALM      29.96R
MT. CLEMENS    CLEAR     72  54  52 W6        29.93R
PONTIAC        PTCLDY    68  55  63 W6        29.96R
PORT HOPE        N/A     66  59  78 NE7       29.93R
PORT HURON     PTCLDY    61  59  94 CALM      29.95R
TRI CITIES     CLEAR     66  56  70 NW6       29.97R
YPSILANTI      CLEAR     72  55  55 W10       29.97R
$$
MIZ043>046-050>051-056>058-064>065-071>073-077>080-050300-
SOUTHWEST LOWER MICHIGAN

CITY           SKY/WX    TMP DP  RH WIND       PRES   REMARKS
BATTLE CREEK   CLEAR     66  59  78 W5        30.01R
BENTON HARBOR  PTCLDY    64  58  80 CALM      30.01R
BIG RAPIDS     CLEAR     62  55  77 NW3       29.98R
COLDWATER      PTCLDY    66  55  67 W3        30.01R
HOLLAND        CLEAR     64  58  80 CALM      30.00R
GRAND RAPIDS   PTCLDY    68  53  58 W6        29.99R
KALAMAZOO      PTCLDY    67  54  63 W3        30.01R
MARSHALL       PTCLDY    65  57  75 CALM      29.99R
MUSKEGON       PTCLDY    64  58  80 SW5       29.99R
$$
MIZ016>042-050300-
NORTHERN LOWER MICHIGAN

CITY           SKY/WX    TMP DP  RH WIND       PRES   REMARKS
ALPENA         PTCLDY    62  51  67 NW5       29.96R
BEAVER ISLAND  CLEAR     60  50  68 NW9       30.00R
BELLAIRE       CLOUDY    62  55  77 CALM      29.99R
CADILLAC       MOCLDY    61  55  82 CALM      29.98R
CHARLEVOIX     CLOUDY    61  58  90 W3        30.02R
FRANKFORT      CLEAR     62  59  88 CALM      29.98R
GAYLORD        CLOUDY    61  55  81 NW6       29.98R
GRAYLING       PTCLDY    56  52  86 CALM      29.99R
HARBOR SPRINGS PTCLDY    62  52  71 NW6       29.98R
HOUGHTON LAKE  MOCLDY    62  53  72 NW5       29.98R
MANISTEE       CLEAR     64  54  68 CALM      29.99R
OSCODA         PTCLDY    59  57  92 CALM      29.95R
PELLSTON       CLEAR     60  51  72 NW5       29.99R
TRAVERSE CITY  PTCLDY    65  55  70 VRB5      29.97R
$$
MIZ007>008-015-050300-
EASTERN UPPER MICHIGAN

CITY           SKY/WX    TMP DP  RH WIND       PRES   REMARKS
KINROSS        CLEAR     54  48  82 NW6       29.98R
MACKINAC ISLAN CLEAR     58  46  64 NW5       29.98R
NEWBERRY       CLEAR     53  48  81 NW7       29.99R
S. S. MARIE    CLEAR     56  50  80 NW10      29.97R
$$
MIZ004>006-011>014-085-050300-
CENTRAL UPPER MICHIGAN

CITY           SKY/WX    TMP DP  RH WIND       PRES   REMARKS
MANISTIQUE     CLEAR     54  49  82 NW5       30.01R
ESCANABA       CLEAR     59  52  77 CALM      30.01R
MENOMINEE      PTCLDY    63  54  72 NE6       29.99R
SAWYER-GWINN   CLEAR     54  50  87 CALM      30.02R
$$
MIZ001>003-009>011-084-050300-
WESTERN UPPER MICHIGAN

CITY           SKY/WX    TMP DP  RH WIND       PRES   REMARKS
IRON MOUNTAIN  CLEAR     59  50  72 N5        30.01R
HOUGHTON       CLEAR     53  48  83 NW6       30.01R
COPPER HARBOR    N/A     59  50  72 VRB5      30.00R
IRONWOOD       CLEAR     55  52  88 CALM      30.02R
$$

ABBREVIATIONS USED IN REMARKS
   TC - TEMPERATURE IN CELSIUS
  WCI - WIND CHILL INDEX
   HX - HEAT INDEX
  VSB - VISIBILITY



USA.gov is the U.S. government's official web portal to all federal, state and local government web resources and services.